JBU73 KJFK-EGPH

Flight info

Callsign JBU73
Flight time N/A
Altitude 31000
Route GREKI DCT JUDDS DCT MARTN DCT TOPPS N735B LOMSI/M079F330 DCT 55N050W 57N040W 58N030W 58N020W DCT SUNOT/N0459F330 DCT KESIX DCT MIMKU DCT DONIB DCT MAC/N0416F250 N562 TRN DCT TLA
Aircraft A21N/M-SDE2E3FGHIRWXY/LB1

Departure

Time 2026-05-08 00:47
Airport John F. Kennedy International Airport (KJFK)

Arrival

Time N/A
Airport Edinburgh Airport (EGPH)
Time Latitude Longitude Altitude Speed Heading
2026-05-08 00:13 40.64530 -73.77389 22 ft 0 kts
2026-05-08 00:34 40.64522 -73.77389 22 ft 2 kts
2026-05-08 00:34 40.64507 -73.77389 22 ft 2 kts
2026-05-08 00:34 40.64491 -73.77389 22 ft 2 kts
2026-05-08 00:34 40.64477 -73.77395 22 ft 2 kts 44°
2026-05-08 00:35 40.64469 -73.77412 22 ft 2 kts 77°
2026-05-08 00:35 40.64468 -73.77421 22 ft 1 kts 93°
2026-05-08 00:35 40.64468 -73.77426 22 ft 0 kts 88°
2026-05-08 00:42 40.64468 -73.77424 21 ft 1 kts 88°
2026-05-08 00:42 40.64469 -73.77388 21 ft 6 kts 89°
2026-05-08 00:43 40.64470 -73.77312 21 ft 10 kts 86°
2026-05-08 00:43 40.64455 -73.77205 21 ft 12 kts 126°
2026-05-08 00:43 40.64429 -73.77087 21 ft 13 kts 102°
2026-05-08 00:43 40.64412 -73.76993 21 ft 0 kts 105°
2026-05-08 00:45 40.64410 -73.76986 21 ft 2 kts 105°
2026-05-08 00:45 40.64401 -73.76949 21 ft 7 kts 111°
2026-05-08 00:45 40.64355 -73.76893 21 ft 10 kts 180°
2026-05-08 00:45 40.64286 -73.76929 21 ft 10 kts 210°
2026-05-08 00:46 40.64259 -73.76950 21 ft 0 kts 210°
2026-05-08 00:46 40.64246 -73.76961 21 ft 7 kts 210°
2026-05-08 00:46 40.64051 -73.77113 22 ft 68 kts 210°
2026-05-08 00:46 40.63440 -73.77591 22 ft 134 kts 211°
2026-05-08 00:47 40.62492 -73.78337 117 ft 174 kts 211°
2026-05-08 00:47 40.61453 -73.79158 736 ft 173 kts 213°
2026-05-08 00:47 40.60416 -73.79972 1424 ft 173 kts 212°
2026-05-08 00:47 40.59356 -73.80739 1997 ft 180 kts 212°
2026-05-08 00:48 40.58236 -73.81526 2339 ft 188 kts 212°
2026-05-08 00:48 40.56980 -73.82233 2564 ft 206 kts 191°
2026-05-08 00:48 40.55533 -73.81992 2843 ft 220 kts 155°
2026-05-08 00:48 40.54349 -73.80630 3107 ft 232 kts 120°
2026-05-08 00:49 40.53883 -73.78571 3323 ft 245 kts 86°
2026-05-08 00:49 40.54281 -73.76366 3645 ft 255 kts 63°
2026-05-08 00:49 40.55098 -73.74232 4067 ft 265 kts 58°
2026-05-08 00:49 40.56262 -73.72336 4631 ft 265 kts 30°
2026-05-08 00:50 40.57925 -73.71400 5279 ft 262 kts 14°
2026-05-08 00:50 40.59693 -73.70741 5872 ft 266 kts 12°
2026-05-08 00:50 40.61491 -73.70076 6441 ft 271 kts 13°
2026-05-08 00:50 40.63308 -73.69363 7003 ft 275 kts 13°
2026-05-08 00:51 40.65149 -73.68604 7613 ft 278 kts 13°
2026-05-08 00:51 40.67007 -73.67810 8213 ft 280 kts 13°
2026-05-08 00:51 40.68857 -73.67007 8769 ft 284 kts 12°
2026-05-08 00:51 40.70760 -73.66174 9337 ft 287 kts 12°
2026-05-08 00:52 40.72678 -73.65330 9889 ft 289 kts 12°
2026-05-08 00:52 40.74585 -73.64487 10348 ft 295 kts 12°
2026-05-08 00:52 40.76599 -73.63602 10597 ft 309 kts 12°
2026-05-08 00:52 40.78678 -73.62684 10841 ft 322 kts 12°
2026-05-08 00:53 40.80847 -73.61723 11086 ft 334 kts 12°
2026-05-08 00:53 40.83097 -73.60723 11315 ft 347 kts 12°
2026-05-08 00:53 40.85421 -73.59687 11540 ft 359 kts 12°
2026-05-08 00:53 40.87816 -73.58617 11758 ft 371 kts 12°
2026-05-08 00:54 40.90070 -73.57610 11959 ft 381 kts 12°
2026-05-08 00:54 40.92583 -73.56484 12303 ft 388 kts 12°
2026-05-08 00:54 40.95191 -73.55312 12778 ft 391 kts 12°
2026-05-08 00:54 40.97797 -73.54139 13237 ft 393 kts 12°
2026-05-08 00:55 41.00411 -73.52963 13631 ft 398 kts 12°
2026-05-08 00:55 41.03019 -73.51791 14006 ft 402 kts 12°
2026-05-08 00:55 41.05722 -73.50577 14399 ft 407 kts 12°
2026-05-08 00:55 41.08412 -73.49370 14757 ft 411 kts 12°
2026-05-08 00:56 41.11183 -73.48124 15116 ft 416 kts 12°
2026-05-08 00:56 41.13947 -73.46878 15468 ft 420 kts 12°
2026-05-08 00:56 41.16714 -73.45630 15817 ft 424 kts 12°
2026-05-08 00:56 41.19531 -73.44357 16190 ft 428 kts 12°
2026-05-08 00:57 41.22375 -73.43073 16502 ft 432 kts 12°
2026-05-08 00:57 41.25238 -73.41777 16824 ft 436 kts 12°
2026-05-08 00:57 41.28104 -73.40478 17238 ft 437 kts 12°
2026-05-08 00:57 41.30974 -73.39173 17644 ft 439 kts 12°
2026-05-08 00:58 41.33911 -73.37842 17927 ft 443 kts 12°
2026-05-08 00:58 41.36829 -73.36515 18246 ft 447 kts 12°
2026-05-08 00:58 41.39787 -73.35171 18552 ft 450 kts 12°
2026-05-08 00:58 41.42765 -73.33816 18873 ft 453 kts 13°
2026-05-08 00:59 41.45678 -73.32414 19181 ft 459 kts 17°
2026-05-08 00:59 41.48473 -73.30416 19487 ft 468 kts 29°
2026-05-08 00:59 41.51056 -73.27670 19764 ft 475 kts 40°
2026-05-08 00:59 41.53402 -73.24559 20113 ft 478 kts 43°
2026-05-08 01:00 41.55735 -73.21306 20407 ft 480 kts 44°
2026-05-08 01:00 41.58033 -73.18133 20658 ft 482 kts 43°
2026-05-08 01:00 41.60406 -73.14934 20925 ft 484 kts 41°
2026-05-08 01:00 41.63007 -73.12306 21116 ft 477 kts 22°
2026-05-08 01:01 41.66130 -73.10960 21363 ft 459 kts 359°
2026-05-08 01:01 41.69259 -73.11047 21699 ft 442 kts 343°
2026-05-08 01:01 41.72303 -73.11710 21969 ft 440 kts 340°
2026-05-08 01:01 41.75337 -73.12448 22214 ft 442 kts 340°
2026-05-08 01:02 41.78411 -73.13142 22477 ft 445 kts 341°
2026-05-08 01:02 41.81468 -73.13767 22726 ft 447 kts 342°
2026-05-08 01:02 41.84621 -73.14366 22975 ft 450 kts 342°
2026-05-08 01:02 41.87738 -73.14928 23197 ft 453 kts 343°
2026-05-08 01:03 41.90786 -73.15462 23413 ft 454 kts 343°
2026-05-08 01:03 41.93806 -73.15984 23633 ft 456 kts 343°
2026-05-08 01:03 41.96943 -73.16523 23857 ft 458 kts 343°
2026-05-08 01:03 42.00134 -73.17069 24107 ft 460 kts 343°
2026-05-08 01:04 42.03327 -73.17615 24338 ft 461 kts 343°
2026-05-08 01:04 42.06541 -73.18165 24552 ft 462 kts 343°
2026-05-08 01:04 42.09729 -73.18710 24796 ft 463 kts 343°
2026-05-08 01:04 42.12943 -73.19262 25015 ft 464 kts 343°
2026-05-08 01:05 42.16169 -73.19815 25188 ft 466 kts 342°
2026-05-08 01:05 42.19385 -73.20368 25413 ft 467 kts 343°
2026-05-08 01:05 42.22601 -73.20922 25567 ft 469 kts 343°
2026-05-08 01:05 42.25871 -73.21487 25728 ft 471 kts 342°
2026-05-08 01:06 42.29091 -73.22040 25914 ft 472 kts 342°
2026-05-08 01:06 42.32378 -73.22607 26107 ft 473 kts 342°
2026-05-08 01:06 42.35609 -73.23164 26267 ft 474 kts 342°
2026-05-08 01:06 42.38886 -73.23730 26464 ft 475 kts 342°
2026-05-08 01:07 42.42161 -73.24297 26666 ft 475 kts 342°
2026-05-08 01:07 42.45422 -73.24860 26907 ft 474 kts 342°
2026-05-08 01:07 42.48692 -73.25425 27167 ft 473 kts 342°
2026-05-08 01:07 42.51982 -73.25993 27412 ft 472 kts 343°
2026-05-08 01:08 42.55321 -73.26050 27572 ft 494 kts 359°
2026-05-08 01:08 42.58694 -73.24636 27693 ft 518 kts 20°
2026-05-08 01:08 42.61674 -73.21780 27849 ft 532 kts 40°
2026-05-08 01:08 42.64043 -73.17929 28063 ft 536 kts 52°
2026-05-08 01:09 42.66128 -73.13734 28267 ft 537 kts 56°
2026-05-08 01:09 42.68177 -73.09471 28456 ft 537 kts 55°
2026-05-08 01:09 42.70261 -73.05236 28650 ft 537 kts 54°
2026-05-08 01:09 42.72408 -73.01034 28858 ft 537 kts 53°
2026-05-08 01:10 42.74590 -72.96883 29053 ft 538 kts 52°
2026-05-08 01:10 42.76808 -72.92734 29218 ft 539 kts 52°
2026-05-08 01:10 42.79025 -72.88606 29374 ft 540 kts 52°
2026-05-08 01:10 42.81253 -72.84474 29560 ft 540 kts 51°
2026-05-08 01:11 42.83498 -72.80312 29767 ft 541 kts 51°
2026-05-08 01:11 42.85704 -72.76221 29937 ft 542 kts 51°
2026-05-08 01:11 42.87941 -72.72061 30111 ft 542 kts 52°
2026-05-08 01:11 42.90168 -72.67918 30268 ft 544 kts 52°
2026-05-08 01:12 42.92414 -72.63731 30432 ft 544 kts 52°
2026-05-08 01:12 42.94640 -72.59566 30606 ft 545 kts 52°
2026-05-08 01:12 42.96903 -72.55332 30792 ft 545 kts 51°
2026-05-08 01:13 43.01367 -72.46965 30856 ft 546 kts 51°
2026-05-08 01:13 43.05872 -72.38496 30861 ft 545 kts 52°
2026-05-08 01:14 43.10360 -72.30036 30857 ft 545 kts 53°
2026-05-08 01:14 43.14846 -72.21553 30854 ft 545 kts 53°
2026-05-08 01:15 43.19307 -72.13093 30853 ft 546 kts 53°
2026-05-08 01:15 43.23757 -72.04627 30853 ft 546 kts 52°
2026-05-08 01:16 43.28162 -71.96227 30854 ft 546 kts 52°
2026-05-08 01:16 43.32591 -71.87759 30852 ft 546 kts 52°
2026-05-08 01:17 43.36998 -71.79302 30846 ft 545 kts 53°
2026-05-08 01:17 43.41388 -71.70859 30846 ft 545 kts 52°
2026-05-08 01:18 43.45789 -71.62363 30841 ft 545 kts 53°
2026-05-08 01:18 43.50166 -71.53900 30842 ft 545 kts 53°
2026-05-08 01:19 43.54571 -71.45357 30839 ft 546 kts 53°
2026-05-08 01:19 43.58984 -71.36763 30841 ft 546 kts 53°
2026-05-08 01:20 43.63360 -71.28226 30834 ft 546 kts 54°
2026-05-08 01:20 43.67733 -71.19668 30828 ft 546 kts 54°
2026-05-08 01:21 43.72108 -71.11083 30817 ft 547 kts 54°
2026-05-08 01:21 43.76462 -71.02509 30813 ft 548 kts 54°
2026-05-08 01:22 43.80813 -70.93909 30821 ft 548 kts 54°
2026-05-08 01:22 43.85232 -70.85155 30821 ft 548 kts 54°
2026-05-08 01:23 43.89621 -70.76446 30817 ft 549 kts 54°
2026-05-08 01:23 43.94023 -70.67672 30812 ft 549 kts 54°
2026-05-08 01:24 43.98384 -70.58954 30810 ft 549 kts 54°
2026-05-08 01:24 44.02760 -70.50185 30806 ft 549 kts 54°
2026-05-08 01:25 44.07086 -70.41492 30809 ft 548 kts 54°
2026-05-08 01:25 44.11399 -70.32794 30807 ft 548 kts 56°
2026-05-08 01:26 44.15713 -70.24067 30810 ft 547 kts 56°
2026-05-08 01:26 44.20019 -70.15324 30811 ft 548 kts 55°
2026-05-08 01:27 44.24308 -70.06596 30807 ft 548 kts 55°
2026-05-08 01:27 44.28600 -69.97834 30802 ft 548 kts 56°
2026-05-08 01:28 44.32884 -69.89068 30802 ft 548 kts 56°